OLANDS SODRA UDDE current weather conditions

sailwx.info

Wind from 190 at 6 knots

Air temperature -0.0° C
Visibility: greater than 5.4 NM
Dewpoint -2.0° C

Last reported at 2017-Dec-18 13:50 UTC.
Time now 2017-Dec-18 15:01 UTC

Location: N 56°56' E 014°44'.
View on Google Maps.

See reports from other nearby stations

  
Tides and Currents Weather Stations Pressure Air Temp Water Temp Dewpoint Dewpoint Depression Visibility Wind Speed Wind Dir Waves Ship Positions
date/time (UTC)wind fromknots sea level pressurealtimeterstation pressurevisibilityair tempwater tempwave heightnotes
2017-Dec-18 13:50 190 6 5.4-0.0
2017-Dec-18 13:20 190 7 5.4-0.0
2017-Dec-18 12:50 200 6 5.4-0.0
2017-Dec-18 12:20 210 6 5.4-0.0
2017-Dec-18 11:50 210 6 5.4-0.0
2017-Dec-18 11:20 230 5 5.4-0.0
2017-Dec-18 10:50 190 7 5.4-1.0
2017-Dec-18 10:20 190 8 5.4-1.0
2017-Dec-18 09:50 190 7 5.4-2.0
2017-Dec-18 09:20 180 7 5.4-2.0
2017-Dec-18 08:50 200 7 5.4-2.0
2017-Dec-18 08:20 180 6 5.4-3.0
2017-Dec-18 07:50 190 6 5.4-2.0
2017-Dec-18 07:20 190 4 5.4-3.0
2017-Dec-18 06:50 180 5 5.4-3.0
2017-Dec-18 06:20 170 4 5.4-2.0
2017-Dec-18 05:50 160 6 5.4-2.0
2017-Dec-18 05:20 170 6 5.4-1.0
2017-Dec-18 04:50 170 5 5.4-2.0
2017-Dec-18 04:20 170 5 5.4-2.0
2017-Dec-18 03:50 160 2 5.4-2.0
2017-Dec-18 03:20 210 2 5.4-2.0
2017-Dec-18 02:50 180 2 5.4-2.0
2017-Dec-18 02:20 190 2 5.4-3.0
2017-Dec-18 01:50 160 2 5.4-3.0
2017-Dec-18 01:20 180 2 5.4-3.0
2017-Dec-18 00:50 190 5 5.4-3.0
2017-Dec-18 00:20 170 5 5.4-3.0
2017-Dec-17 23:50 170 5 5.4-2.0
2017-Dec-17 23:20 170 4 0.6-3.0
2017-Dec-17 22:50 140 2 0.4-3.0 Fog.
2017-Dec-17 22:20 1.2-3.0 Mist.
2017-Dec-17 21:50 5.4-3.0
2017-Dec-17 21:20 210 5 5.4-3.0
2017-Dec-17 20:50 220 4 5.4-3.0
2017-Dec-17 20:20 230 6 5.4-3.0
2017-Dec-17 19:50 200 6 5.4-3.0
2017-Dec-17 19:20 200 6 5.4-3.0
2017-Dec-17 18:50 210 5 5.4-3.0
2017-Dec-17 18:20 250 6 5.4-3.0
2017-Dec-17 17:50 200 6 5.4-3.0
2017-Dec-17 17:20 240 5 5.4-3.0
2017-Dec-17 16:50 280 4 5.4-3.0
2017-Dec-17 16:20 250 4 5.4-3.0
2017-Dec-17 15:50 220 6 5.4-3.0 Snow grains.
2017-Dec-17 15:20 230 6 5.4-3.0 Snow grains.
2017-Dec-17 14:50 270 4 5.4-2.0
2017-Dec-17 14:20 280 5 5.4-2.0
2017-Dec-17 13:50 250 5 5.4-2.0 Snow grains.
2017-Dec-17 13:20 270 6 3.2-2.0 Light snow.
2017-Dec-17 12:50 220 5 4.9-2.0 Snow grains.
2017-Dec-17 12:20 260 5 4.3-1.0 Light drizzle snow.
2017-Dec-17 11:50 300 2 5.4-1.0 Light drizzle snow.
2017-Dec-17 11:20 280 5 5.4-1.0
2017-Dec-17 10:50 350 4 5.4-1.0
2017-Dec-17 10:20 290 6 5.4-1.0
2017-Dec-17 09:50 320 5 5.4-1.0
2017-Dec-17 09:20 330 6 5.4-1.0 Snow grains.
2017-Dec-17 08:50 300 6 3.2-1.0 Snow grains.
2017-Dec-17 08:20 340 6 5.4-1.0 Light rain snow.
2017-Dec-17 07:50 340 6 5.4-1.0 Mist.
2017-Dec-17 07:20 330 6 1.8-1.0 Snow grains.
2017-Dec-17 06:50 330 6 5.4-1.0
2017-Dec-17 06:20 330 8 5.4-1.0
2017-Dec-17 05:50 320 6 5.4-1.0
2017-Dec-17 05:20 310 5 5.4-1.0
2017-Dec-17 04:50 310 2 5.4-1.0
2017-Dec-17 04:20 310 2 5.4-1.0
2017-Dec-17 03:50 310 4 5.4-2.0
2017-Dec-17 03:20 300 2 5.4-2.0
2017-Dec-17 02:50 270 2 4.9-2.0 Light freezing drizzle.
2017-Dec-17 02:20 270 2 5.4-3.0
2017-Dec-17 01:50 5.4-3.0
2017-Dec-17 01:20 320 4 5.4-2.0
2017-Dec-17 00:50 330 2 5.4-2.0 Precipitation.
2017-Dec-17 00:20 290 4 5.4-2.0
2017-Dec-16 23:50 290 2 5.4-2.0
2017-Dec-16 23:20 5.4-2.0
2017-Dec-16 22:50 290 4 5.4-3.0
2017-Dec-16 22:20 300 2 5.4-2.0
2017-Dec-16 21:50 290 4 5.4-2.0
2017-Dec-16 21:20 270 1 5.4-2.0
2017-Dec-16 20:50 290 2 5.4-2.0
2017-Dec-16 20:20 310 2 5.4-1.0
2017-Dec-16 19:50 270 4 5.4-1.0
2017-Dec-16 19:20 290 1 5.4-1.0
2017-Dec-16 18:50 290 2 5.4-1.0
2017-Dec-16 18:20 290 1 5.4-1.0
2017-Dec-16 17:50 260 0 5.4-1.0 Snow grains.
2017-Dec-16 17:20 4.3-1.0 Light drizzle snow.
2017-Dec-16 16:50 270 5 4.3-1.0 Snow grains.
2017-Dec-16 16:20 280 4 5.4-1.0 Precipitation.
2017-Dec-16 15:50 290 4 5.4-1.0
2017-Dec-16 15:20 280 5 5.4-1.0